Погода в Новоалександровском

Россия / Калужская область     54°20′30″N   34°04′21″E
темп.,
°C
ветер,
м/с
пор.,
м/с
влажн.,
%
обл.,
%
осадки,
мм/ч
давл.,
гПа
погр.,
м
17 апреля, сб
сб1700:00+7в259614 0.4 1017149
03:00+6юв22935 0.4 101829
06:00+5вюв22925 0.0 101932
09:00+10всв2474100 0.0 1019346
12:00+13ссв3564100 0.1 10171003
15:00+10св3795100 8.3 1017683
18:00+10всв51188100 2.4 10161090
21:00+7в3694100 2.7 1018513
18 апреля, вс
вс1800:00+6юв3793100 0.6 1018432
03:00+4в1195100 0.6 101916
06:00+4всв2496100 0.0 1019109
09:00+7в3584100 0.0 1019521
12:00+8вюв478399 0.1 1019687
15:00+10в587271 0.3 10191218
18:00+7всв589099 0.9 1020860
21:00+6всв5892100 1.3 1021946
19 апреля, пн
пн1900:00+6всв61191100 0.1 1021596
03:00+6всв51090100 0.1 1021700
06:00+5всв61294100 0.4 1020635
09:00+5всв51094100 1.9 1021942
12:00+7всв61091100 3.9 10201053
15:00+7всв51091100 4.7 10201180
18:00+6всв71292100 2.1 1019974
21:00+5всв61394100 8.0 1019933
20 апреля, вт
вт2000:00+5всв61395100 12.4 10171013
03:00+5в61394100 23.4 1016767
06:00+5в61392100 0.8 1015650
09:00+5всв61294100 2.3 1014940
12:00+4всв71493100 1.3 1011887
15:00+5всв81693100 4.5 1006945
18:00+5всв92094100 8.9 10001299
21:00+7в81794100 12.4 996816
21 апреля, ср
ср2100:00+9вюв61390100 0.3 995944
03:00+7вюв5139458 0.3 995629
06:00+4ююз5995100 1.0 996728
09:00+3ююз61497100 1.4 999799
12:00+5ююз71389100 0.1 10031313
15:00+7ююз7137899 0.3 10051387
18:00+8ююз6137668 0.2 10071365
21:00+6ю5138567 0.4 1009656